CAPE
0 0 0 0 1 0 0 1 2 0 0 0 0 0 0 0 0 0 0 0 10 36 2 0 0 0 0 0 0 0 0 0 0 0 0 0 0 0 0 0 0 0 0
0 0 0 0 0 0 0 0 0 0 0 0 0 0 0 0 0 0 0 0 15 13 14 0 0 0 0 0 0 0 0 0 0 0 0 0 0 0 0 0 0 0 0
0 0 1 0 0 0 0 0 0 0 0 0 0 0 0 0 0 0 0 0 0 8 15 0 0 0 0 0 0 0 0 0 0 0 0 0 0 0 0 0 0 0 0
0 0 0 0 0 0 0 0 0 0 0 0 0 0 0 0 0 0 0 0 0 6 43 23 0 0 0 0 0 0 0 0 0 0 0 0 0 0 0 0 0 0 0
0 0 0 0 0 0 0 0 0 0 0 0 0 0 0 0 0 0 0 0 0 0 0 3 0 0 0 0 0 0 0 0 0 0 0 0 0 0 0 0 0 0 0
0 0 0 0 0 0 0 0 0 0 0 0 0 0 0 0 0 0 0 0 0 0 0 0 0 0 0 0 0 0 0 0 0 0 0 0 0 0 0 0 0 0 0
0 0 0 0 0 0 0 0 0 0 0 0 0 0 0 0 0 0 0 0 0 0 0 0 0 0 0 0 0 0 0 0 0 0 0 0 0 0 0 0 0 0 0
0 0 0 0 0 0 0 0 0 0 0 0 0 0 0 0 0 0 0 0 0 0 0 0 0 0 0 0 0 0 0 0 0 0 0 0 0 0 0 0 0 0 0
0 0 0 0 0 0 0 0 0 0 0 0 0 0 0 0 0 0 0 0 0 0 0 0 0 11 1 0 0 0 0 0 0 0 0 0 0 0 0 0 0 0 0
0 0 0 0 0 0 0 0 0 0 0 0 0 0 0 0 0 0 0 0 0 0 0 0 0 0 0 0 0 0 0 0 0 0 0 0 0 0 0 0 0 0 0
0 0 1 0 0 0 0 0 0 0 0 0 0 0 0 0 0 0 0 0 0 0 0 0 0 0 0 0 0 0 0 0 0 0 0 0 0 0 0 0 0 0 0
0 0 0 0 0 2 14 0 0 0 0 0 0 0 0 0 0 1 0 0 0 0 0 0 0 0 0 0 0 0 0 0 0 0 0 0 0 0 0 0 0 0 0
0 0 0 0 1 25 28 31 13 1 0 0 0 0 0 0 0 8 7 0 0 0 0 0 0 0 0 0 0 0 0 0 0 0 0 0 0 0 0 0 0 0 0
0 0 0 0 0 0 5 33 52 44 37 18 3 0 1 2 7 2 6 4 0 2 5 0 0 0 0 0 0 0 0 0 0 0 0 0 0 0 0 0 0 0 0
0 0 0 0 0 0 0 0 10 60 92 111 110 65 38 48 11 18 35 7 1 1 0 0 0 0 0 0 0 0 0 0 0 0 0 0 0 0 0 0 0 0 0
0 0 0 0 0 1 21 43 0 0 24 98 105 70 0 0 0 0 0 0 0 0 1 0 0 0 1 0 0 0 0 0 0 0 0 0 0 0 0 0 0 0 0
0 0 0 0 0 39 109 175 74 95 82 65 6 0 0 0 0 0 0 1 0 0 0 0 1 1 0 0 0 0 0 0 0 0 0 0 0 0 0 0 0 0 0
0 0 0 0 0 11 1 0 0 35 65 41 0 0 0 0 0 0 0 0 0 0 0 0 0 0 0 0 0 0 0 0 0 0 0 0 0 0 0 0 0 0 0
0 0 0 0 0 0 0 0 0 0 0 0 0 0 1 2 1 0 0 0 0 0 0 0 0 0 0 0 0 0 0 0 0 0 0 0 0 0 0 0 0 0 0
0 0 0 0 0 0 0 0 0 0 0 0 0 0 0 0 0 0 0 0 0 0 0 0 0 0 0 0 0 0 0 0 0 0 0 0 0 0 0 0 0 0 0
0 0 0 0 0 0 0 0 0 0 0 0 0 0 0 0 0 0 0 0 0 0 0 0 0 0 0 0 0 0 0 0 0 0 0 0 0 0 0 0 0 0 0
0 0 0 0 0 0 0 0 0 0 0 0 0 0 0 0 0 0 0 0 0 0 0 0 0 0 0 0 0 0 0 0 0 0 0 0 0 0 0 0 0 0 0
0 0 0 0 0 0 0 0 0 0 0 0 0 0 0 0 0 0 0 0 0 0 0 0 0 0 0 0 0 0 0 0 0 0 0 0 0 0 0 0 0 0 0
0 0 0 0 0 0 0 0 0 0 0 0 0 0 0 0 0 0 0 0 0 0 0 0 0 0 0 0 0 0 0 0 0 0 0 0 0 0 0 0 0 0 0
0 0 0 0 0 0 0 0 0 0 0 0 0 0 0 0 0 0 0 0 0 0 0 0 0 0 0 0 0 0 0 0 0 0 0 0 0 0 0 0 0 0 0
0 0 0 0 0 0 0 0 0 0 0 0 0 0 0 0 0 0 0 0 0 0 0 0 0 0 0 0 0 0 0 0 0 0 0 0 0 0 0 0 0 0 0
CIN
0 0 0 0 0 0 0 0 0 0 0 -2 0 0 0 0 0 0 0 -51 -244 -233 -251 0 0 0 0 0 0 0 0 0 0 0 0 0 0 0 0 0 0 0 0
0 0 0 0 0 0 0 0 0 0 0 0 0 0 0 0 0 0 0 0 -210 -224 -204 0 0 0 0 0 0 0 0 0 0 0 0 0 0 0 0 0 0 0 0
0 0 0 0 0 0 0 0 0 0 0 0 0 0 0 0 0 0 0 0 -48 -188 -199 0 0 0 0 0 0 0 0 0 0 0 0 0 0 0 0 0 0 0 0
0 0 0 0 0 0 0 0 0 0 0 0 0 0 0 0 0 0 0 0 0 -153 -184 -193 0 0 0 0 0 0 0 0 0 0 0 0 0 0 0 0 0 0 0
0 0 0 0 0 0 0 0 0 0 0 0 0 0 0 0 0 0 0 0 0 0 0 -46 0 0 0 0 0 0 0 0 0 0 0 0 0 0 0 0 0 0 0
0 0 0 0 0 0 0 0 0 0 0 0 0 0 0 0 0 0 0 0 0 0 0 0 0 0 0 0 0 0 0 0 0 0 0 0 0 0 0 0 0 0 0
0 0 0 0 0 0 0 0 0 0 0 0 0 0 0 0 0 0 0 0 0 0 0 0 0 0 0 0 0 0 0 0 0 0 0 0 0 0 0 0 0 0 0
0 0 0 0 0 0 0 0 0 0 0 0 0 0 0 0 0 0 0 0 0 0 0 0 0 0 0 0 0 0 0 0 0 0 0 0 0 0 0 0 0 0 0
0 0 0 0 0 0 0 0 0 0 0 0 0 0 0 0 0 0 0 0 0 0 0 0 0 -157 -20 0 0 0 0 0 0 0 0 0 0 0 0 0 0 0 0
0 0 0 0 0 0 0 0 0 0 0 0 0 0 0 0 0 0 0 0 0 0 0 0 0 0 0 0 0 0 0 0 0 0 0 0 0 0 0 0 0 0 0
0 0 -494 0 -198 0 0 0 0 0 0 0 0 0 0 0 0 0 0 0 0 0 0 0 0 0 0 0 0 0 0 0 0 0 0 0 0 0 0 0 0 0 0
0 0 0 0 0 -351 -733 0 0 0 0 0 0 0 0 0 0 -102 -1 0 0 0 0 0 0 0 0 0 0 0 0 0 0 0 0 0 0 0 0 0 0 0 0
0 0 0 0 -134 -655 -656 -674 -708 -152 0 0 0 0 0 0 -67 -279 -291 0 0 0 0 -22 0 0 0 0 0 0 0 0 0 0 0 0 0 0 0 0 0 0 0
0 0 0 0 0 0 -544 -589 -597 -640 -612 -579 -253 -133 -191 -169 -299 -199 -209 -218 0 -180 -208 0 0 0 0 0 0 0 0 0 0 0 0 0 0 0 0 0 0 0 0
0 0 0 0 0 0 0 0 -587 -547 -550 -482 -429 -418 -356 -268 -259 -230 -225 -222 -59 -67 0 0 0 0 0 0 0 0 0 0 0 0 0 0 0 0 0 0 0 0 0
0 0 0 0 0 -394 -645 -667 -12 0 -632 -502 -476 -405 0 0 0 0 0 0 0 0 0 0 0 0 0 0 0 0 0 0 0 0 0 0 0 0 0 0 0 0 0
0 0 0 0 0 -577 -636 -589 -793 -764 -636 -588 -270 0 0 0 0 0 0 0 0 0 0 0 0 0 0 0 0 0 0 0 0 0 0 0 0 0 0 0 0 0 0
0 0 0 0 0 -801 -407 0 0 -751 -633 -554 0 0 0 0 0 0 0 0 0 0 0 0 0 0 0 0 0 0 0 0 0 0 0 0 0 0 0 0 0 0 0
0 0 0 0 -184 0 0 0 0 0 0 0 0 0 0 0 0 0 0 0 0 0 0 0 0 0 0 0 0 0 0 0 0 0 0 0 0 0 0 0 0 0 0
0 0 0 0 0 0 0 0 0 0 0 0 0 0 0 0 0 0 0 0 0 0 0 0 0 0 0 0 0 0 0 0 0 0 0 0 0 0 0 0 0 0 0
0 0 0 0 0 0 0 0 0 0 0 0 0 0 0 0 0 0 0 0 0 0 0 0 0 0 0 0 0 0 0 0 0 0 0 0 0 0 0 0 0 0 0
0 0 0 0 0 0 0 0 0 0 0 0 0 0 0 0 0 0 0 0 0 0 0 0 0 0 0 0 0 0 0 0 0 0 0 0 0 0 0 0 0 0 0
0 0 0 0 0 0 0 0 0 0 0 0 0 0 0 0 0 0 0 0 0 0 0 0 0 0 0 0 0 0 0 0 0 0 0 0 0 0 0 0 0 0 0
0 0 0 0 0 0 0 0 0 0 0 0 0 0 0 0 0 0 0 0 0 0 0 0 0 0 0 0 0 0 0 0 0 0 0 0 0 0 0 0 0 0 0
0 0 0 0 0 0 0 0 0 0 0 0 0 0 0 0 0 0 0 0 0 0 0 0 0 0 0 0 0 0 0 0 0 0 0 0 0 0 0 0 0 0 0
0 0 0 0 0 0 0 0 0 0 0 0 0 0 0 0 0 0 0 0 0 0 0 0 0 0 0 0 0 0 0 0 0 0 0 0 0 0 0 0 0 0 0
Wind_Speed
6 8 10 9 10 9 11 10 12 11 8 7 7 3 2 2 1 3 6 5 5 6 5 3 4 4 6 7 7 4 4 1 3 4 3 2 1 3 4 3 4 5 6
7 9 9 10 9 11 10 12 11 12 9 8 6 4 2 2 2 1 2 4 6 5 5 6 5 6 4 5 6 5 4 2 4 4 2 1 3 3 5 4 5 7 3
11 11 14 12 9 11 11 11 12 10 9 9 3 1 2 2 2 2 2 4 4 5 6 6 5 6 5 6 7 6 7 5 4 4 5 2 5 1 2 6 6 5 5
12 10 12 14 14 13 11 12 12 11 9 6 6 6 8 8 5 4 2 5 4 5 6 7 7 6 5 6 8 6 5 5 5 2 3 2 5 4 2 3 4 7 8
16 16 17 16 14 13 13 12 12 12 12 11 9 8 8 6 4 3 5 6 6 7 7 9 8 7 7 7 8 6 6 4 4 4 3 1 1 0 2 3 2 2 3
17 15 12 11 11 10 11 13 14 14 15 15 16 14 14 9 9 10 9 7 4 6 8 7 8 8 7 7 8 9 9 9 5 4 5 5 5 4 4 3 4 3 3
15 15 14 14 14 15 15 14 16 19 18 18 17 18 16 14 15 13 11 8 6 5 8 9 7 7 8 6 5 7 9 10 9 10 7 3 4 4 2 3 2 3 2
15 17 19 17 16 17 18 18 19 19 20 19 19 17 17 11 13 13 9 6 8 7 6 10 10 11 7 5 5 5 6 8 8 8 6 4 4 3 4 4 4 2 4
16 19 18 18 17 17 20 21 21 20 20 22 18 18 15 16 13 11 7 6 7 7 6 7 7 7 6 11 11 10 11 9 9 9 6 4 3 3 4 2 3 4 2
17 18 17 18 18 19 19 18 19 21 21 17 17 14 14 14 12 8 8 8 7 5 5 5 5 6 7 10 9 6 8 10 7 5 7 5 3 4 2 4 3 3 3
14 16 19 19 21 18 17 18 18 20 17 18 16 15 15 12 10 12 14 9 7 8 9 8 8 7 8 6 8 7 7 9 7 5 7 5 5 4 3 3 2 3 3
13 13 16 17 17 19 18 21 20 20 21 17 18 18 16 16 16 16 18 15 15 12 10 8 9 9 9 9 11 10 9 9 8 8 8 6 5 6 4 3 4 2 2
9 10 8 13 17 18 18 18 19 22 20 18 19 18 18 18 21 20 17 16 15 14 15 13 10 9 10 10 9 9 8 7 7 8 8 9 8 6 4 3 2 1 1
8 9 11 14 15 16 18 18 19 20 18 19 19 19 19 21 19 15 16 15 15 17 15 10 11 10 9 9 8 8 7 6 6 8 8 9 7 6 5 3 2 2 2
8 7 7 11 11 11 13 15 17 15 14 16 17 20 18 15 12 12 12 12 11 12 8 8 7 8 9 7 9 9 8 8 7 7 7 7 6 9 5 3 3 2 1
10 11 10 8 9 12 14 12 10 10 14 16 17 13 9 9 9 8 8 8 7 7 7 8 10 9 5 10 11 10 8 7 8 7 6 7 10 11 12 11 8 6 3
11 11 11 15 11 12 10 9 7 7 10 11 9 9 8 9 9 9 9 8 9 10 9 9 9 8 6 13 13 11 7 7 7 8 8 7 7 7 6 8 8 6 3
10 10 10 10 10 6 5 8 7 8 9 8 8 9 10 10 10 11 9 8 7 9 8 8 8 8 6 11 12 12 8 8 7 7 7 8 7 6 5 5 4 1 1
15 13 11 6 9 11 10 10 8 9 11 9 9 9 10 11 10 10 10 8 9 7 6 6 7 7 6 13 14 12 9 9 9 8 7 6 6 8 9 3 2 3 3
6 7 6 6 12 11 12 12 10 10 10 10 9 10 9 10 8 8 8 4 6 7 8 8 7 9 8 12 13 11 7 8 6 6 7 8 7 7 4 2 1 2 3
6 8 9 11 10 12 13 11 11 9 7 8 9 8 8 8 9 8 7 7 8 10 10 10 9 11 10 9 13 11 6 6 5 4 4 3 6 4 3 4 2 1 3
8 8 9 9 9 11 12 11 10 9 10 10 9 9 9 7 7 10 8 9 10 11 9 10 9 8 9 14 16 17 13 9 5 4 3 2 4 4 4 4 5 7 3
8 6 11 10 7 7 10 13 8 12 13 12 10 10 10 8 7 9 9 8 9 9 8 7 7 7 6 7 13 14 13 10 5 4 3 4 4 5 4 5 6 4 2
6 6 11 11 9 8 9 11 11 12 13 13 11 9 11 10 9 7 6 7 7 7 7 7 7 6 6 4 3 4 4 6 4 4 4 3 4 5 3 3 3 3 3
6 7 8 11 10 10 11 10 11 14 13 13 11 10 9 10 11 10 6 6 5 4 7 5 7 7 5 4 5 4 3 2 3 3 2 2 2 2 1 1 3 3 4
8 10 10 12 11 11 11 10 10 13 14 12 9 8 8 8 8 10 11 19 17 19 18 15 11 7 12 11 9 7 5 7 7 3 2 1 0 1 2 2 3 4 5
Wind_Direction
169 171 182 169 167 161 168 168 163 164 167 185 177 164 203 247 227 167 189 181 181 154 173 195 164 153 180 189 186 129 161 128 135 104 36 343 271 246 229 214 219 207 199
171 171 175 174 181 171 177 174 176 170 179 187 195 192 208 264 257 241 285 214 224 164 182 187 189 176 174 176 165 160 121 121 178 140 116 205 301 243 219 218 213 223 195
195 186 189 188 177 178 183 184 181 178 186 180 146 119 107 342 298 283 232 227 222 210 201 199 185 187 176 188 187 172 166 159 203 207 145 128 222 212 164 207 209 205 213
191 191 188 197 188 188 181 185 184 181 189 182 179 192 220 222 228 228 262 271 220 220 204 202 203 185 201 188 198 186 184 151 168 209 217 244 133 182 290 281 222 201 213
194 190 195 200 194 180 181 187 189 190 195 194 195 189 210 214 225 224 230 242 235 218 205 205 197 201 203 200 187 180 193 204 164 165 147 138 96 92 143 240 227 262 211
204 205 187 184 195 185 184 185 190 197 198 200 200 200 204 201 206 218 222 230 218 217 214 204 203 202 199 201 203 200 198 202 211 178 177 165 168 188 167 196 240 210 252
197 199 189 184 182 189 195 190 191 199 201 207 209 209 209 207 215 219 219 218 222 220 222 204 203 206 208 217 194 197 221 200 206 191 202 168 168 148 129 146 203 231 271
193 199 200 196 192 189 194 196 198 205 203 204 210 212 215 218 222 225 226 221 227 231 214 207 209 205 168 183 184 208 218 211 211 209 186 181 171 149 152 161 157 244 240
190 198 200 199 198 196 198 199 201 207 207 208 207 211 211 219 223 225 232 231 235 231 215 222 215 205 190 211 206 212 203 196 202 207 198 179 174 159 161 169 154 166 230
196 197 197 202 202 205 203 204 209 209 208 207 212 214 213 223 229 225 220 220 224 212 210 181 179 192 197 216 211 214 195 190 198 174 173 179 166 151 170 141 157 143 172
205 200 194 199 206 205 201 205 211 215 213 214 210 212 217 215 218 225 236 204 162 173 200 193 195 185 215 188 194 200 190 190 169 160 180 172 133 146 164 123 170 175 178
203 202 199 195 198 204 200 200 209 211 213 208 209 209 208 199 201 206 205 180 183 184 182 200 221 176 185 193 201 196 186 184 170 172 161 145 151 143 153 151 178 189 224
214 198 180 194 200 201 202 203 205 215 211 207 207 206 205 205 211 222 213 199 202 189 194 209 217 201 197 194 192 189 168 164 168 164 160 162 158 151 148 163 180 154 356
194 201 198 203 205 200 201 202 208 213 205 205 205 206 203 208 217 219 219 208 200 199 204 197 180 185 182 184 176 163 155 156 162 161 155 161 157 148 154 140 77 31 338
223 211 219 198 196 198 203 206 214 209 196 198 203 208 208 206 204 201 198 202 201 200 181 169 154 160 164 165 170 165 156 157 157 150 149 130 114 90 104 130 96 88 62
209 214 203 226 184 196 202 199 203 189 179 192 200 188 167 163 172 168 158 150 151 142 147 144 145 152 161 166 152 144 150 151 150 144 111 104 104 104 102 98 89 84 82
222 214 193 201 204 204 192 184 172 146 167 181 171 172 156 162 151 152 148 150 143 135 133 138 144 139 131 152 152 134 139 138 132 133 130 122 111 105 103 83 72 66 35
223 230 220 186 196 165 132 120 129 135 136 151 148 142 144 140 139 141 140 127 135 130 130 123 124 129 139 142 130 120 114 108 104 102 102 112 110 101 119 79 51 24 274
227 219 214 164 154 151 139 132 132 132 131 139 139 136 143 144 147 142 136 126 120 114 116 121 122 122 118 130 125 114 107 100 92 90 93 107 115 90 63 72 353 337 322
213 178 134 127 145 148 141 139 144 134 140 147 138 135 135 134 125 118 114 81 88 100 93 82 76 98 104 114 115 112 113 107 102 86 77 80 80 61 35 96 79 344 331
165 123 142 153 153 145 140 139 133 133 127 119 114 113 110 109 107 97 98 99 101 94 90 84 69 70 70 74 93 91 100 111 104 101 89 54 34 14 23 57 97 6 32
144 148 132 125 134 141 134 127 113 116 115 111 101 98 95 99 100 106 103 104 109 107 99 94 77 62 65 73 77 82 85 95 106 106 100 60 16 25 40 67 13 12 21
145 126 125 117 90 98 127 119 129 123 116 107 105 101 94 89 94 111 110 105 113 117 115 113 111 103 83 76 89 89 87 85 98 112 102 65 61 76 70 28 11 29 9
74 89 113 110 97 90 88 114 121 113 111 108 100 93 91 82 69 65 79 104 117 124 129 132 128 122 111 96 71 83 89 106 100 93 72 69 80 69 50 25 20 15 356
39 69 96 97 88 93 95 104 112 113 104 99 98 92 88 90 85 66 59 77 44 108 140 129 130 128 116 115 117 114 91 101 130 104 86 65 55 41 4 19 353 1 349
80 74 73 86 88 87 83 84 99 111 111 101 95 99 103 102 102 102 88 70 82 88 94 103 110 98 115 111 104 108 105 95 115 89 109 104 53 13 342 352 341 343 333